TimeCST,TemperatureF,Dew PointF,Humidity,Sea Level PressureIn,VisibilityMPH,Wind Direction,Wind SpeedMPH,Gust SpeedMPH,PrecipitationIn,Events,Conditions,WindDirDegrees,DateUTC
12:53 AM,36.0,36.0,100,29.43,8.0,North,18.4,25.3,0.01,Rain,Light Rain,360,2013-01-30 06:53:00
1:26 AM,35.6,35.6,100,29.42,2.5,North,15.0,21.9,0.01,Rain,Light Rain,360,2013-01-30 07:26:00
1:53 AM,36.0,35.1,97,29.46,3.0,North,18.4,28.8,0.05,Rain,Light Rain,350,2013-01-30 07:53:00
2:53 AM,35.1,34.0,96,29.44,9.0,NNE,17.3,25.3,0.04,Rain,Light Rain,20,2013-01-30 08:53:00
3:39 AM,35.6,33.8,93,29.39,10.0,NNE,12.7,26.5,0.00,Rain,Light Rain,20,2013-01-30 09:39:00
3:53 AM,35.1,34.0,96,29.40,10.0,North,16.1,-,0.00,,Overcast,10,2013-01-30 09:53:00
4:53 AM,34.0,33.1,96,29.40,9.0,North,17.3,27.6,N/A,,Overcast,360,2013-01-30 10:53:00
5:25 AM,33.8,33.8,100,29.38,6.0,North,16.1,23.0,0.01,Rain,Light Rain,10,2013-01-30 11:25:00
5:53 AM,34.0,33.1,96,29.38,7.0,North,13.8,20.7,0.01,,Overcast,10,2013-01-30 11:53:00
6:21 AM,33.8,33.8,100,29.36,10.0,NNE,16.1,-,N/A,,Overcast,20,2013-01-30 12:21:00
6:53 AM,35.1,33.1,92,29.37,9.0,NNE,16.1,23.0,N/A,,Overcast,20,2013-01-30 12:53:00
7:53 AM,35.1,34.0,96,29.37,4.0,NE,17.3,24.2,N/A,,Overcast,40,2013-01-30 13:53:00
8:02 AM,35.6,33.8,93,29.35,4.0,NE,15.0,-,N/A,,Overcast,40,2013-01-30 14:02:00
8:30 AM,35.6,33.8,93,29.33,1.8,NE,16.1,-,0.00,,Overcast,40,2013-01-30 14:30:00
8:50 AM,35.6,35.6,100,29.32,1.2,NE,17.3,24.2,0.01,,Overcast,50,2013-01-30 14:50:00
8:53 AM,35.1,34.0,96,29.34,1.2,NE,16.1,24.2,0.01,,Overcast,40,2013-01-30 14:53:00
9:15 AM,35.6,33.8,93,29.31,2.0,NNE,17.3,21.9,0.00,Rain,Light Rain,30,2013-01-30 15:15:00
9:25 AM,35.6,33.8,93,29.31,1.8,NNE,15.0,-,0.01,Snow,Light Snow,30,2013-01-30 15:25:00
9:40 AM,35.6,33.8,93,29.30,2.0,NNE,15.0,25.3,0.01,Snow,Light Snow,30,2013-01-30 15:40:00
9:53 AM,35.1,34.0,96,29.30,3.0,NE,17.3,24.2,0.02,,Overcast,40,2013-01-30 15:53:00
10:23 AM,35.6,33.8,93,29.28,1.8,NNE,15.0,26.5,0.01,Rain,Light Rain,20,2013-01-30 16:23:00
10:53 AM,34.0,33.1,96,29.28,2.0,NE,12.7,24.2,0.05,Snow,Light Snow,50,2013-01-30 16:53:00
11:11 AM,35.6,33.8,93,29.25,4.0,NE,15.0,24.2,0.01,Snow,Light Snow,40,2013-01-30 17:11:00
11:32 AM,33.8,33.8,100,29.25,1.8,NNE,16.1,20.7,0.02,Snow,Light Snow,20,2013-01-30 17:32:00
11:53 AM,32.0,32.0,100,29.28,1.2,North,13.8,-,0.04,Snow,Light Snow,350,2013-01-30 17:53:00
12:11 PM,32.0,30.2,93,29.27,0.8,NNW,12.7,20.7,0.02,Snow,Light Snow,340,2013-01-30 18:11:00
12:45 PM,30.2,28.4,93,29.24,1.0,NNW,17.3,24.2,0.03,Snow,Light Snow,340,2013-01-30 18:45:00
12:53 PM,30.9,28.9,92,29.25,1.8,North,15.0,-,0.03,Snow,Light Snow,350,2013-01-30 18:53:00
1:00 PM,30.2,28.4,93,29.24,2.0,North,18.4,23.0,0.00,Snow,Light Snow,350,2013-01-30 19:00:00
1:12 PM,30.2,28.4,93,29.24,3.0,North,16.1,23.0,0.00,Snow,Light Snow,350,2013-01-30 19:12:00
1:22 PM,30.2,28.4,93,29.23,6.0,NNW,17.3,24.2,0.00,,Overcast,340,2013-01-30 19:22:00
1:44 PM,30.2,26.6,86,29.24,10.0,NNW,15.0,23.0,0.00,,Overcast,340,2013-01-30 19:44:00
2:53 PM,30.0,25.0,82,29.29,10.0,North,16.1,-,N/A,,Overcast,350,2013-01-30 20:53:00
3:53 PM,28.9,23.0,78,29.31,10.0,NNW,13.8,23.0,N/A,,Overcast,330,2013-01-30 21:53:00
4:11 PM,28.4,23.0,80,29.30,8.0,NNW,13.8,-,N/A,,Overcast,330,2013-01-30 22:11:00
4:32 PM,28.4,24.8,86,29.33,1.8,NW,9.2,20.7,0.00,Snow,Light Snow,320,2013-01-30 22:32:00
4:40 PM,28.4,24.8,86,29.33,1.0,NW,11.5,-,0.01,Snow,Light Snow,310,2013-01-30 22:40:00
4:48 PM,26.6,24.8,93,29.33,0.8,NW,13.8,20.7,0.01,Snow,Light Snow,310,2013-01-30 22:48:00
4:53 PM,27.0,24.1,89,29.36,0.8,NW,15.0,20.7,0.01,Snow,Light Snow,320,2013-01-30 22:53:00
5:08 PM,26.6,24.8,93,29.35,1.5,NW,12.7,19.6,0.00,Snow,Light Snow,310,2013-01-30 23:08:00
5:17 PM,26.6,24.8,93,29.35,3.0,NW,9.2,-,0.00,Snow,Light Snow,310,2013-01-30 23:17:00
5:48 PM,26.6,21.2,80,29.38,9.0,NW,12.7,21.9,0.00,,Overcast,310,2013-01-30 23:48:00
5:53 PM,27.0,21.9,81,29.40,4.0,WNW,11.5,20.7,0.00,Snow,Light Snow,300,2013-01-30 23:53:00
6:00 PM,26.6,23.0,86,29.38,1.8,NW,11.5,19.6,0.00,Snow,Light Snow,310,2013-01-31 00:00:00
6:33 PM,26.6,21.2,80,29.39,2.5,WNW,11.5,19.6,0.00,Snow,Light Snow,300,2013-01-31 00:33:00
6:53 PM,26.1,21.9,84,29.42,3.0,NW,9.2,-,0.00,Snow,Light Snow,310,2013-01-31 00:53:00
7:29 PM,26.6,19.4,74,29.42,10.0,NW,12.7,-,0.00,,Overcast,310,2013-01-31 01:29:00
7:53 PM,25.0,19.9,81,29.45,6.0,WNW,15.0,20.7,0.00,Snow,Light Snow,290,2013-01-31 01:53:00
8:53 PM,21.9,16.0,78,29.49,6.0,WNW,15.0,27.6,0.00,,Haze,290,2013-01-31 02:53:00
9:53 PM,19.9,14.0,78,29.52,10.0,WNW,15.0,24.2,0.00,,Overcast,300,2013-01-31 03:53:00
10:53 PM,19.0,12.9,77,29.56,9.0,West,18.4,24.2,0.00,,Overcast,280,2013-01-31 04:53:00
11:53 PM,18.0,10.9,74,29.60,9.0,WNW,18.4,28.8,0.00,Snow,Light Snow,290,2013-01-31 05:53:00